Location: Santa Barbara
(34.4500°N, 119.7700°W)
Time: 08:19:44
(UTC-07:00)

Cosmos 1892 Rocket - Visible Passes

Search period start: 29 March 2017 00:00
Search period end: 08 April 2017 00:00
Orbit: 606 x 633 km, 82.5° (Epoch: 27 March)

Date Brightness Start Highest point End Pass type
(mag) Time Alt. Az. Time Alt. Az. Time Alt. Az.
29 Mar 3.5 05:32:32 10° S 05:36:52 89° E 05:41:15 10° N visible
30 Mar 6.6 04:15:34 10° ESE 04:17:10 12° E 04:18:45 10° ENE visible
30 Mar 3.9 05:50:24 10° SSW 05:54:32 44° W 05:58:45 10° N visible
31 Mar 5.8 04:31:07 10° SE 04:34:34 23° E 04:38:03 10° NE visible
31 Mar 4.8 06:08:54 10° SW 06:12:19 22° WNW 06:15:46 10° NNW visible
01 Apr 4.5 04:49:16 19° SSE 04:52:04 47° E 04:56:17 10° NNE visible
02 Apr 3.4 05:07:35 31° S 05:09:40 83° W 05:14:04 10° N visible
03 Apr 6.4 03:48:36 12° ESE 03:49:55 13° E 03:51:58 10° ENE visible
03 Apr 4.0 05:25:48 29° SW 05:27:21 40° W 05:31:30 10° N visible
04 Apr 5.4 04:06:43 25° ESE 04:07:21 26° E 04:10:59 10° NNE visible
04 Apr 4.9 05:43:55 18° W 05:45:09 21° WNW 05:48:28 10° NNW visible
05 Apr 4.2 04:24:46 52° E 04:24:51 52° E 04:29:09 10° NNE visible
05 Apr 5.6 06:02:12 10° W 06:03:03 10° WNW 06:03:55 10° WNW visible
06 Apr 3.5 04:42:45 72° NW 04:42:45 72° NW 04:46:53 10° N visible
07 Apr 6.4 03:23:29 14° ENE 03:23:29 14° ENE 03:25:05 10° NE visible
07 Apr 4.3 05:00:41 35° WNW 05:00:41 35° WNW 05:04:16 10° NNW visible
